Погода Красные Баки

Погода Красные Баки : погода сейчас, прогноз погоды и архив. Всё, что Вы хотите узнать о погоде Красные Баки!

Хотите узнать прогноз погоды Красные Баки? Тогда Вам сюда: Погода Красные Баки

Поиск расширенной информации на нашем сайте:

Другие новости

Новости СМИ2

Главная страница сайта

Новости сайта

03.07.2017

Напоминаем, что на нашем специализированном сайте Метеоцентр.Азия вы можете получить высокодетализированные автоматические прогнозы погоды по пунктам России, СНГ и мира в авиационном формате (включающие направление и скорость ветра, видимость, явления погоды, количество и форму облачности, нижнюю и верхнюю границу облачности).

Рекомендуем: Что представляют из себя цветы в шляпных коробках.

Погода Красные Баки - сегодня

Время (UTC), дата Ветер
(°,м/с) 
Видим.   Явления Облачность Т
(°С)
Тd
(°С)
f(%) Тe
(°С)
Pmin
(гПа)
dP
(гПа)
Po
(мм)
O2
(г/м3)
Тmin Tmax R s Состояние
почвы
15 10.12.17 150 (ЮВ) 3-5{07}  10 км    10/10 600 м 
[St]
-4 -6.2 85 -6  1020.5  0.1  755  309    -3.5       
18 10.12.17 150 (ЮВ) 3-6{07}  10 км    10/10 600 м 
[St]
-3.8 -5.3 89 -6  1020.4  -0.1  755  309           
21 10.12.17 150 (ЮВ) 4-7{08}  10 км    10/10 600 м 
[St]
-4.6 -6.2 89 -8  1020.4  755  310           
00 11.12.17 150 (ЮВ) 3-7{08}  10 км    10/10 600 м 
[St]
-4.4 -6.4 86 -7  1020  -0.4  754  310           
03 11.12.17 150 (ЮВ) 3-6{09}  2000 м  дымка  10/10 600 м 
[St]
-4.1 -5.3 91 -6  1019.4  -0.6  754  309  -4.7      10  равномерный
сухой снег
100% 
06 11.12.17 160 (Ю) 4-8{09}  20000 м  в посл. час переохл. осадки (гололёд){дождь} [диам. гололёда 1 мм]  10/10 600 м 
[Ns]
-4 -5.2 91 -7  1019.8  0.4  754  309           
09 11.12.17 160 (Ю) 4-8{08}  20000 м  {дождь} [диам. гололёда 1 мм]  10/10 600 м 
[Ns]
-3.2 -4.2 93 -6  1019.4  -0.3  754  308           
12 11.12.17 140 (ЮВ) 3-5{07}  30000 м  [диам. гололёда 1 мм]  10/10 600 м 
[St]
-2.6 -3.9 91 -5  1018.7  -0.7  753  307           
15 11.12.17 140 (ЮВ) 4-8{08}  10 км  [диам. гололёда 1 мм]  10/10 600 м 
[St]
-2.5 -4.4 87 -5  1017.9  -0.8  753  307    -2.4  0.0     
18 11.12.17 130 (ЮВ) 3-6{08}  2000 м  слаб. снег  10/10 300 м 
[Ns]
-2.4 -3.6 91 -4  1017.4  -0.5  752  306           
21 11.12.17 130 (ЮВ) 4-7{08}  10 км  {снег}  10/10 600 м 
[Ns]
-1.6 -3 90 -4  1017.1  -0.3  752  305           
00 12.12.17 140 (ЮВ) 4-6{07}  10 км  {снег}  10/10 600 м 
[St]
-1 -2.3 91 -4  1016.7  -0.3  752  304           
03 12.12.17 140 (ЮВ) 3-5{07}  2000 м  слаб. снег  10/10 300 м 
[Ns]
-0.8 -1.8 93 -3  1017.3  0.6  752  304  -2.5    11  равномерный
сухой снег
100% 
06 12.12.17 160 (Ю) 2-4{06}  20000 м  {снег}  10/10 600 м 
[Ns]
-0.4 -1.8 90 -1  1018.9  1.6  754  304           
09 12.12.17 160 (Ю) 2-4{06}  20000 м    10/10 600 м 
[Sc]
-0.2 -1.9 88 -1  1020  1.1  755  304           
12 12.12.17 120 (ЮВ) 2-4{05}  20000 м    10/10 600 м 
[Sc]
-0.4 -2.5 86 -1  1020.7  0.7  755  305           
15 12.12.17 160 (Ю) 2-4{05}  20000 м    10/10 600 м 
[Sc]
-0.8 -2.7 87 -2  1021.3  0.6  755  306    -0.1  0.0     
18 12.12.17 120 (ЮВ) 3-5{06}  10 км    10/10 600 м 
[Sc]
-1.2 -2.9 88 -3  1020.9  -0.4  755  306           
21 12.12.17 140 (ЮВ) 3-5{06}  10 км    10/10 600 м 
[Sc]
-1.2 -2.5 91 -3  1020.3  -0.6  755  306           
00 13.12.17 150 (ЮВ) 4-6{07}  10 км    10/10 1000 м 
[Sc]
-1.1 -2.4 91 -4  1018.9  -1.4  754  305           
03 13.12.17 180 (Ю) 4-6{07}  10 км    10/10 1000 м 
[Sc]
-0.8 -1.8 93 -3  1017.8  -1.1  753  304  -1.3      11  равномерный
сухой снег
100% 
06 13.12.17 180 (Ю) 4-8{10}  6000 м  слаб. снег  10/10 600 м 
[Ns]
+0.1 -0.2 98 -2  1016  -1.7  752  303           
09 13.12.17 170 (Ю) 4-9{09}  6000 м  слаб. снег  10/10 300 м 
[Ns]
+0.5 -0.6 92 -2  1014.4  -1.5  750  302           
12 13.12.17 180 (Ю) 4-9{11}  2000 м  слаб. морось{снег, дождь}  10/10 300 м 
[St]
+0.7 -0.1 94 -2  1013.4  -1  750  301           
15 13.12.17 200 (Ю) 4-8{10}  2000 м  слаб. дождь{морось}  10/10 300 м 
[Ns]
+1.2 +0.4 94 -1  1012.6  -0.8  749  300    +1.3     
Время (UTC), дата Ветер
(°,м/с) 
Видим.   Явления Облачность Т
(°С)
Тd
(°С)
f(%) Тe
(°С)
Pmin
(гПа)
dP
(гПа)
Po
(мм)
O2
(г/м3)
Тmin Tmax R s Состояние
почвы

Для получения пояснительной информации подведите курсор к названию столбца.

ПОГОДА Красные Баки - архив

Всё, что Вы хотите узнать о погоде Красные Баки - удобно и подробно!

Выберите нужную дату (начиная с 1 января 2015* года) и нажмите кнопку "Найти".
Будут отображены архивные сводки погоды по пункту Красные Баки, начиная с указанной даты.


Отображать данные в формате CSV (для использования в таблицах Excel)


Внимание! Наш архив погоды предназначен исключительно для личного некоммерческого использования в познавательных целях. Если Вам необходимы официальные справки о состоянии погоды (для производственных, юридических, коммерческих и т.п. целей), обращайтесь в органы Росгидромета.

*Примечание: данная дата относится к архиву по метеостанциям СССР (Россия, СНГ, Балтия).
Архив по метеостанциям Зарубежной Европы и Азии (кроме Китая) хранится 10 дней, по другим регионам земного шара (Китай, Африка, Америка, Австралия, Океания) - 1 день.

Красные Баки - район местоположения метеостанции


Название, широта, долгота, высота метеостанции:
Красные Баки 57.1°ш. 45.2°д. 110 м над ур. моря [Российская Федерация]

Дополнительная информация

В oтличие oт бoльшинства пoгoдных сайтoв мы публикуем пoдрoбную метеoинфoрмацию в детальнoм прoфессиoнальнoм фoрмате.

Характеристики температуры и влажнoсти вoздуха измеряются на высoте 2 м в тени вдали oт зданий и деревьев.
Скoрoсть ветра измеряется на высoте 10 м (на урoвне рoста челoвека скoрoсть ветра ниже в 1.5-2 раза). Если метеoстанция нахoдится в гoрoде или в лесу, тo скoрoсть ветра занижена на 2-4 м/с пo сравнению с oткрытым местoм. Скoрoсть ветра над акватoриями крупных рек и oзёр, а также на вершинах хoлмoв на 2-5 м/с выше, чем в oбычных услoвиях.
Атмoсфернoе давление в разных тoчках местнoсти мoжет значительнo oтличаться oт давления на метеoстанции, в зависимoсти oт услoвий рельефа (при пoдъёме на 10 м давление пoнижается примернo на 1 мм рт.ст.).